Aasiaat

KL  EN  DA
ASIAQ
Weather Now GREENLAND SURVEY
Updated [WGT/WGST] Temperature [°C] Wind [m/s] Air pressure [hPa] Relative humidity [%] Precipitation [mm]
Present Wind chill Speed Max
27.09 01:00-3,4-7,63,0 ⇙4,61019700,0
27.09 00:00-5,3-8,82,1 ⇑2,71019710,0
26.09 23:00-4,2-8,53,0 ⇙4,31019630,0
26.09 22:00-4,4-8,42,6 ⇙5,01019630,0
26.09 21:00-4,4-7,11,7 ⇙2,91018660,0
26.09 20:00-4,4-6,91,6 ⇐2,61018660,0
26.09 19:00-3,9-7,12,1 ⇙3,41018640,0
26.09 18:00-3,9-7,52,4 ⇙4,01018650,0
26.09 17:00-3,6-8,03,2 ⇓4,51017590,0
26.09 16:00-3,3-6,21,9 ⇓3,41017620,0
26.09 15:00-3,8-7,42,4 ⇙3,51017630,0
26.09 14:00-4,1-7,92,5 ⇐3,81017680,0
26.09 13:00-3,9-7,82,6 ⇙4,11017670,0
26.09 12:00-3,9-8,63,4 ⇐4,41017680,0
26.09 11:00-4,1-9,03,6 ⇐5,21017690,0
26.09 10:00-4,1-8,83,4 ⇐4,81017720,0
26.09 09:00-4,5-9,84,0 ⇐5,01017750,0
26.09 08:00n/an/an/an/an/an/a0,0
26.09 07:00-4,5-9,53,6 ⇐4,41017730,0
26.09 06:00-4,1-9,84,6 ⇐5,31017730,0
26.09 05:00-2,6-7,43,9 ⇐4,91017720,0
26.09 04:00-2,6-7,64,1 ⇐5,11017720,0
26.09 03:00-2,3-8,56,2 ⇐7,81017750,0
26.09 02:00-2,2-7,85,3 ⇐6,91017770,0
26.09 01:00-2,6-4,91,6 ⇖2,11018850,1
Position: (68.7166666666,-52.78333333)

[Back]